Location: B?dargowo
(53.3916°N, 14.4413°E)
Time: 13:28:27
(UTC+00:00)

deb Kosmos-1168 - Visible Passes

Search period start: 23 February 2024 00:00
Search period end: 04 March 2024 00:00
Orbit: 749 x 769 km, 82.9° (Epoch: 22 February)

Date Brightness Start Highest point End Pass type
(mag) Time Alt. Az. Time Alt. Az. Time Alt. Az.
23 Feb ? 02:20:38 40° NE 02:20:38 40° NE 02:24:08 10° NNE visible
23 Feb ? 04:00:43 26° NW 04:00:43 26° NW 04:04:32 10° N visible
24 Feb ? 01:41:52 26° NE 01:41:52 26° NE 01:44:38 10° NNE visible
24 Feb ? 03:21:57 36° NW 03:21:57 36° NW 03:25:39 10° N visible
25 Feb ? 01:03:03 16° NE 01:03:03 16° NE 01:04:47 10° NE visible
25 Feb ? 02:43:08 41° N 02:43:08 41° N 02:46:33 10° N visible
25 Feb ? 04:23:13 15° NW 04:23:13 15° NW 04:26:04 10° NNW visible
26 Feb ? 02:04:17 34° NNE 02:04:17 34° NNE 02:07:15 10° NNE visible
26 Feb ? 03:44:22 23° NW 03:44:22 23° NW 03:47:34 10° N visible
27 Feb ? 01:25:24 24° NE 01:25:24 24° NE 01:27:45 10° NNE visible
27 Feb ? 03:05:28 31° NNW 03:05:28 31° NNW 03:08:40 10° N visible
28 Feb ? 00:46:28 16° NE 00:46:28 16° NE 00:47:55 10° NE visible
28 Feb ? 02:26:33 35° N 02:26:33 35° N 02:29:32 10° N visible
28 Feb ? 04:06:38 14° NW 04:06:38 14° NW 04:08:52 10° NNW visible
29 Feb ? 01:47:35 30° NNE 01:47:35 30° NNE 01:50:13 10° NNE visible
29 Feb ? 03:27:40 21° NW 03:27:40 21° NW 03:30:26 10° N visible
01 Mar ? 01:08:37 22° NE 01:08:37 22° NE 01:10:41 10° NNE visible
01 Mar ? 02:48:41 27° NNW 02:48:41 27° NNW 02:51:31 10° N visible
02 Mar ? 00:29:36 15° NE 00:29:36 15° NE 00:30:51 10° NNE visible
02 Mar ? 02:09:40 30° N 02:09:40 30° N 02:12:21 10° N visible
02 Mar ? 03:49:44 13° NW 03:49:44 13° NW 03:51:30 10° NNW visible
03 Mar ? 01:30:37 28° NNE 01:30:37 28° NNE 01:33:00 10° NNE visible
03 Mar ? 03:10:41 19° NW 03:10:41 19° NW 03:13:07 10° NNW visible
